Change the Weather History Date:

Wednesday, September 28, 2011

  Actual Average Record
Temperature  
Mean Temperature 76 °F 71 °F  
Max Temperature 95 °F 85 °F 97 °F (1960)
Min Temperature 57 °F 56 °F 41 °F (1925)
Cooling Degree Days 11 6  
Month to date cooling degree days 331 314  
Year to date cooling degree days 2015 2015  
Growing Degree Days 27 (Base 50)    
Moisture  
Dew Point 36 °F    
Average Humidity 30    
Maximum Humidity 47    
Minimum Humidity 12    
Precipitation  
Precipitation 0.00 in 0.02 in 0.75 in (1905)
Month to date precipitation 1.29 1.00  
Year to date precipitation 6.38 6.27  
Sea Level Pressure  
Sea Level Pressure 29.87 in    
Wind  
Wind Speed 6 mph (SW)    
Max Wind Speed 22 mph    
Max Gust Speed 25 mph    
Visibility 10 miles    
Events      
T = Trace of Precipitation, MM = Missing Value Source: NWS Daily Summary

Daily Weather History Graph

Daily Weather History Graph

Search for Another Location

Airport or City:

Trip Planner

Search our weather history database for the weather conditions in past years. The results will help you decide how hot, cold, wet, or windy it might be!

Date:

Astronomy

Sep. 28, 2011 Rise Set
Actual Time 6:28 AM MST 6:24 PM MST
Civil Twilight 6:02 AM MST 6:49 PM MST
Nautical Twilight 5:33 AM MST 7:18 PM MST
Astronomical Twilight 5:03 AM MST 7:48 PM MST
Moon 7:56 AM MST (9/28) 7:03 PM MST (9/28)
Length of Visible Light 12h 46m
Length of Day
11h 56m
Waxing Crescent, 3% of the Moon is Illuminated
Sep 28
Waxing Crescent
Oct 3
First Quarter
Oct 11
Full
Oct 19
Last Quarter
Oct 26
New

Hourly Weather History & Observations

Time (MST) Temp. Dew Point Humidity Pressure Visibility Wind Dir Wind Speed Gust Speed Precip Events Conditions
12:48 AM 66.9 °F 39.9 °F 37% 29.88 in 10.0 mi SW 4.6 mph - N/A   Clear
1:48 AM 63.0 °F 39.0 °F 41% 29.89 in 10.0 mi Calm Calm - N/A   Clear
2:48 AM 62.1 °F 37.0 °F 39% 29.89 in 10.0 mi Calm Calm - N/A   Clear
3:48 AM 64.0 °F 37.0 °F 37% 29.88 in 10.0 mi Calm Calm - N/A   Clear
4:00 AM - - N/A% - - North - - N/A   Unknown
4:48 AM 60.1 °F 37.9 °F 44% 29.89 in 10.0 mi Calm Calm - N/A   Clear
5:48 AM 60.1 °F 37.0 °F 42% 29.90 in 10.0 mi Calm Calm - N/A   Clear
6:48 AM 59.0 °F 39.0 °F 48% 29.92 in 10.0 mi Calm Calm - N/A   Clear
7:48 AM 70.0 °F 39.9 °F 33% 29.93 in 10.0 mi Calm Calm - N/A   Clear
8:48 AM 75.9 °F 39.9 °F 27% 29.93 in 10.0 mi Calm Calm - N/A   Clear
9:48 AM 84.9 °F 35.1 °F 17% 29.91 in 10.0 mi Calm Calm - N/A   Clear
10:48 AM 89.1 °F 32.0 °F 13% 29.91 in 10.0 mi NW 4.6 mph - N/A   Clear
11:48 AM 91.0 °F 32.0 °F 12% 29.88 in 10.0 mi WNW 6.9 mph - N/A   Clear
12:48 PM 91.0 °F 32.0 °F 12% 29.87 in 10.0 mi SW 5.8 mph - N/A   Clear
1:48 PM 93.9 °F 33.1 °F 12% 29.84 in 10.0 mi SW 9.2 mph - N/A   Clear
2:48 PM 95.0 °F 35.1 °F 12% 29.83 in 10.0 mi WSW 15.0 mph 23.0 mph N/A   Clear
3:48 PM 93.0 °F 35.1 °F 13% 29.81 in 10.0 mi SW 19.6 mph - N/A   Clear
4:48 PM 91.0 °F 36.0 °F 14% 29.82 in 10.0 mi SW 16.1 mph - N/A   Clear
5:48 PM 88.0 °F 36.0 °F 16% 29.83 in 10.0 mi SW 16.1 mph - N/A   Clear
6:48 PM 82.9 °F 36.0 °F 19% 29.85 in 10.0 mi SW 11.5 mph - N/A   Clear
7:48 PM 78.1 °F 36.0 °F 22% 29.85 in 10.0 mi SW 9.2 mph - N/A   Clear
8:48 PM 78.1 °F 34.0 °F 20% 29.85 in 10.0 mi SW 10.4 mph - N/A   Clear
9:48 PM 73.0 °F 34.0 °F 24% 29.85 in 10.0 mi SSE 4.6 mph - N/A   Clear
10:48 PM 73.0 °F 34.0 °F 24% 29.85 in 10.0 mi Calm Calm - N/A   Clear
11:48 PM 71.1 °F 36.0 °F 28% 29.85 in 10.0 mi SW 4.6 mph - N/A   Clear